Lid_Strength_Index
5 5 5 5 6 6 8 11 10 7 9 13 16 16 13 10 11 12 12 12 12 11 11 12 13 12 10 8 9 11 12 14 13 11 10 10 12 13 14 15 15 17 17 16
5 5 5 5 6 6 8 13 11 6 8 13 14 13 12 11 11 12 12 12 10 11 11 13 12 11 9 8 9 9 11 14 15 13 12 11 12 12 13 15 16 16 16 15
5 5 5 5 6 6 8 10 10 8 9 11 12 12 11 11 9 10 11 12 11 12 13 13 13 12 9 8 8 5 8 14 14 15 13 12 12 11 11 12 14 15 14 13
5 4 5 5 5 5 9 9 9 9 11 10 10 10 10 10 10 9 10 11 12 12 14 13 14 10 10 8 6 9 11 14 15 13 12 12 11 11 11 13 13 13 13 12
5 5 5 5 5 6 8 10 10 9 11 10 10 11 11 10 9 10 10 10 8 11 13 11 10 10 10 11 10 11 12 13 13 14 11 10 11 10 10 10 11 11 11 12
5 5 5 5 5 7 11 10 9 10 11 11 11 11 9 8 8 8 8 8 8 9 8 8 9 8 9 9 10 12 13 13 14 15 13 12 13 12 11 12 11 12 13 11
6 5 5 5 5 5 8 10 10 11 13 11 11 9 8 8 9 10 7 8 9 7 7 8 9 10 10 10 10 10 12 13 14 16 14 16 12 9 9 11 10 10 10 9
5 4 4 4 5 5 7 10 10 11 13 11 11 10 10 10 10 10 9 8 8 9 9 11 13 13 12 11 10 10 11 13 14 14 15 14 11 10 10 12 12 9 10 8
4 4 4 4 5 5 7 9 9 10 12 12 8 11 11 12 12 11 10 8 8 9 11 12 15 14 13 13 10 11 12 13 13 16 16 16 12 8 7 8 15 8 8 8
4 4 4 4 4 5 6 9 9 9 11 10 9 10 10 10 12 12 11 10 9 9 12 13 14 14 12 13 14 13 13 13 15 15 15 14 10 8 7 14 13 8 7 7
5 5 5 5 4 5 6 8 8 9 10 9 6 7 9 8 10 12 10 10 10 10 12 14 13 13 12 12 12 12 13 14 15 14 16 18 8 8 12 9 8 7 7 7
5 5 5 5 4 4 5 10 7 6 9 8 6 5 4 5 6 8 10 10 11 9 10 11 11 12 12 13 14 11 13 12 13 13 13 9 8 8 7 7 8 8 8 6
6 5 5 5 4 4 5 7 9 9 9 8 7 7 5 4 4 4 9 9 8 10 8 10 11 12 12 14 13 12 11 10 11 11 10 10 9 8 7 8 7 6 6 5
6 5 5 6 5 4 4 7 9 9 9 10 8 4 6 4 5 4 4 7 8 8 8 11 11 11 10 12 11 11 10 10 11 11 9 9 8 7 7 6 5 5 5 5
5 5 6 6 6 5 5 6 6 7 8 10 9 6 5 6 5 5 5 8 8 8 8 10 10 10 9 10 11 11 9 10 11 11 9 9 8 6 5 5 5 5 5 6
5 5 6 6 6 6 8 7 7 6 7 8 10 6 6 4 5 6 7 7 8 7 8 9 8 8 9 12 12 9 8 7 7 8 7 7 6 5 4 5 5 5 5 5
5 5 5 6 6 7 11 8 6 6 7 8 9 9 6 5 6 6 6 6 7 7 8 8 8 9 9 11 12 8 8 8 7 6 7 7 6 6 5 4 4 4 4 4
4 5 5 5 5 6 8 7 6 7 8 7 10 10 8 6 8 8 7 7 8 8 8 8 9 9 9 11 10 8 7 7 7 7 7 6 6 5 5 4 4 5 5 5
4 4 5 6 8 7 5 3 4 6 7 9 9 11 12 6 8 7 7 8 10 8 9 10 9 10 11 9 8 7 7 7 7 7 6 6 5 5 5 5 5 6 6 5
5 6 6 7 6 3 3 5 7 7 8 9 11 9 10 9 8 8 9 8 9 11 10 8 10 11 9 8 7 7 7 7 7 7 8 7 7 6 6 6 5 5 5 5
7 10 9 7 5 7 7 8 9 9 10 8 8 9 12 8 9 9 8 9 10 13 10 10 11 12 9 7 8 8 8 7 7 7 6 6 5 5 5 5 5 4 4 5
7 6 6 7 8 9 10 10 9 10 11 8 9 8 9 8 7 9 9 10 9 13 9 11 13 10 8 8 7 7 7 6 6 6 6 5 4 4 4 5 5 5 4 4
6 6 7 8 9 13 12 13 11 11 8 7 7 9 7 7 8 9 10 12 12 8 11 12 11 8 7 7 6 6 6 5 5 5 4 4 4 4 4 4 4 4 4 4
8 8 12 10 11 10 10 9 9 7 7 7 7 8 8 7 9 9 12 10 10 13 14 13 10 8 7 6 5 5 6 5 5 5 5 4 4 4 4 4 4 4 4 4
8 8 12 10 7 7 6 6 7 6 5 7 8 8 8 10 10 9 10 12 14 12 13 10 8 7 6 6 6 6 5 5 5 5 5 5 4 4 5 4 4 5 4 4
7 8 10 8 9 8 7 7 7 5 6 6 7 10 11 12 10 11 12 13 13 11 9 8 6 6 6 6 5 5 4 5 5 5 5 5 5 5 5 5 5 5 5 4
8 9 8 8 9 9 8 6 6 4 6 10 9 11 12 9 12 12 10 12 10 8 7 6 6 6 6 6 5 4 4 5 5 5 5 5 5 5 5 6 6 5 5 5